Location: Unspecified
(0.0000°N, 0.0000°E)
Time: 22:31:32
(UTC+00:00)

THORAD DELTA 1 DEB - Visible Passes

Search period start: 29 April 2025 00:00
Search period end: 09 May 2025 00:00
Orbit: 1499 x 1615 km, 102.5° (Epoch: 14 April)

Date Brightness Start Highest point End Pass type
(mag) Time Alt. Az. Time Alt. Az. Time Alt. Az.
29 Apr ? 03:54:13 10° NNE 04:02:55 77° ESE 04:11:29 10° SSW visible
30 Apr ? 03:23:10 10° NE 03:31:17 45° ESE 03:39:17 10° S visible
30 Apr ? 05:19:06 10° NNW 05:25:48 25° WNW 05:32:28 10° WSW visible
01 May ? 02:53:03 10° ENE 02:59:41 25° ESE 03:06:14 10° SSE visible
01 May ? 04:46:07 10° N 04:54:14 45° WNW 05:02:17 10° SW visible
02 May ? 02:25:08 10° E 02:28:09 12° ESE 02:31:08 10° SE visible
02 May ? 04:13:57 10° NNE 04:22:38 78° WNW 04:31:11 10° SSW visible
03 May ? 03:42:27 10° NNE 03:50:59 63° ESE 03:59:24 10° S visible
04 May ? 03:11:43 10° NE 03:19:22 36° ESE 03:26:56 10° S visible
04 May ? 05:06:34 10° NNW 05:13:55 32° WNW 05:21:13 10° SW visible
05 May ? 02:42:08 10° ENE 02:47:48 19° ESE 02:53:23 10° SSE visible
05 May ? 04:33:55 10° N 04:42:19 56° WNW 04:50:39 10° SSW visible
06 May ? 04:02:02 10° NNE 04:10:42 86° ESE 04:19:16 10° SSW visible
07 May ? 03:30:48 10° NNE 03:39:04 51° ESE 03:47:14 10° S visible
07 May ? 05:27:27 10° NNW 05:33:34 22° WNW 05:39:41 10° WSW visible
08 May ? 03:00:25 10° NE 03:07:27 29° ESE 03:14:25 10° SSE visible
08 May ? 04:54:11 10° N 05:02:01 40° WNW 05:09:48 10° SW visible
